Location: Mococo
(38.0255°N, 122.1161°W)
Time: 01:32:15
(UTC+00:00)

Cosmos 990 Rocket - Pass Details

Date: 13 February 2026
Orbit: 742 x 763 km, 74.0° (Epoch: 10 March)

Event Time Altitude Azimuth Distance (km) Brightness Sun altitude
Rises 13:15:18 0° 189° (S) 3,205 7.1 -21.3°
Reaches altitude 10° 13:17:39 10° 187° (S) 2,285 6.4 -20.8°
Maximum altitude 13:22:48 68° 106° (ESE) 823 4.3 -19.8°
Drops below altitude 10° 13:28:00 10° 24° (NNE) 2,304 6.7 -18.8°
Sets 13:30:23 0° 22° (NNE) 3,233 7.5 -18.3°
